Location: Unspecified
(54.1780°N, 0.0000°E)
Time: 21:54:59
(UTC+00:00)

Explorer 7 - Pass Details

Date: 27 June 2019
Orbit: 485 x 680 km, 50.3° (Epoch: 15 July)

Event Time Altitude Azimuth Distance (km) Brightness Sun altitude
Rises 12:25:15 0° 278° (W) 2,887 10.5 58.9°
Reaches altitude 10° 12:27:52 10° 264° (W) 2,013 10.0 58.8°
Maximum altitude 12:31:32 23° 212° (SSW) 1,365 9.8 58.7°
Drops below altitude 10° 12:35:19 10° 160° (SSE) 2,081 10.3 58.6°
Sets 12:38:04 0° 146° (SE) 3,009 10.9 58.5°
